Location: Asheville, NC
(35.6000°N, 82.5500°W)
Time: 13:53:10
(UTC-04:00)

Vanguard 1 Rocket - Pass Details

Date: 17 March 2018
Orbit: 653 x 4224 km, 34.3° (Epoch: 18 June)

Event Time Altitude Azimuth Distance (km) Brightness Sun altitude
Rises 23:44:15 0° 283° (WNW) 5,160 11.8 -46.4°
Reaches altitude 10° 23:47:04 10° 278° (W) 4,522 11.3 -46.8°
Enters shadow 23:57:42 52° 231° (SW) 3,392 10.0 -48.2°
